Wind_Speed
4 5 7 7 8 9 10 11 11 11 12 13 15 16 16 17 17 17 16 15 15 15 15 16 15 15 14 14 14 13 13 13 12 10 10 11 11 11 10 10 10 10 10 10
5 6 7 9 9 11 11 11 12 11 13 15 16 16 16 16 16 16 15 14 15 14 14 15 15 14 14 14 13 12 12 12 11 10 10 10 9 10 10 10 10 9 9 10
7 7 8 9 10 11 11 12 11 11 13 15 17 16 16 15 15 15 15 15 15 15 15 15 14 14 13 13 12 12 13 13 12 11 10 9 9 9 9 9 9 9 9 10
7 8 9 9 10 11 11 11 11 11 13 14 16 16 15 14 14 15 16 16 16 15 15 15 15 15 13 12 12 12 12 12 11 11 9 8 9 9 9 9 9 10 10 10
9 9 9 10 11 12 12 11 13 14 14 15 15 17 14 13 14 15 15 15 15 15 15 15 15 15 13 12 11 12 12 12 12 11 10 10 10 9 9 9 9 9 8 9
9 9 9 10 12 13 12 13 13 14 14 15 15 16 14 13 14 14 14 14 14 14 14 15 14 14 12 11 11 12 11 11 11 11 11 11 10 10 9 8 8 8 9 9
10 9 10 11 12 12 12 13 13 13 13 13 12 14 13 12 12 12 12 13 13 14 14 14 13 12 11 10 11 11 10 10 10 11 11 11 10 9 8 8 9 9 9 10
11 10 11 12 12 13 13 13 14 13 12 12 12 13 13 13 12 12 11 12 13 13 13 13 12 11 10 10 10 9 9 9 9 10 10 9 9 9 9 9 9 10 10 10
11 11 12 12 12 12 12 12 12 12 13 12 12 12 12 12 12 12 12 12 12 12 13 12 11 11 11 10 9 9 8 9 9 9 10 10 8 8 8 9 10 10 10 11
12 12 12 12 12 11 11 11 11 12 12 11 11 11 11 11 10 10 11 11 10 11 11 10 10 10 10 9 8 8 8 8 9 9 8 7 8 8 8 9 10 10 11 11
13 13 12 12 11 11 11 10 11 12 11 11 12 10 10 10 9 10 10 10 9 9 10 10 9 9 9 8 8 7 7 8 8 8 8 8 8 8 8 9 10 10 11 11
13 14 13 12 11 11 11 10 11 12 12 12 13 11 9 8 8 9 10 10 9 9 9 9 8 7 8 8 7 7 7 7 7 7 7 7 8 8 8 9 10 11 11 11
14 14 13 12 11 11 11 11 11 12 13 13 12 11 8 8 8 9 10 9 9 8 8 8 7 7 7 7 7 6 6 6 6 6 6 8 8 8 9 10 10 10 11 11
14 14 14 13 12 12 12 12 12 13 13 12 11 10 8 9 9 10 10 9 8 8 7 6 6 6 6 6 7 6 6 6 6 7 7 8 8 9 10 10 10 10 10 11
14 13 13 14 14 14 13 13 14 14 14 13 12 11 10 10 10 10 10 9 9 7 7 7 7 7 6 6 6 6 5 5 6 7 7 8 9 10 10 10 10 11 10 11
15 14 14 15 15 15 14 14 14 14 13 12 11 12 11 11 10 11 10 9 8 7 6 7 8 7 7 6 6 7 6 6 7 7 8 9 10 10 10 10 11 11 11 11
17 16 16 16 15 16 15 14 13 13 12 12 11 11 12 11 10 11 11 10 9 7 7 8 8 7 7 7 7 7 8 9 9 9 9 10 10 11 11 11 11 11 11 12
18 17 18 18 17 16 15 14 14 13 13 13 13 13 11 11 11 10 10 10 9 8 8 9 9 8 8 8 8 9 10 10 10 10 11 11 11 11 11 11 11 11 12 12
19 19 19 18 18 17 16 15 15 14 14 13 14 14 13 13 12 11 10 10 10 10 10 10 10 9 9 10 10 10 10 10 10 11 12 12 12 12 12 12 12 12 12 11
20 20 20 20 19 18 17 17 16 16 15 14 15 15 16 15 15 13 12 11 11 10 10 10 10 10 11 11 11 11 11 11 11 11 12 12 12 12 12 12 11 11 11 11
20 20 20 21 21 20 19 19 17 17 17 17 17 16 15 15 14 14 14 13 12 12 11 11 11 11 11 11 11 11 11 12 12 12 12 11 11 11 11 11 11 11 11 11
21 21 20 20 21 21 20 20 19 19 18 17 16 16 15 15 14 14 14 13 13 13 13 13 13 13 12 12 12 12 13 13 13 13 13 12 12 12 11 11 11 11 11 10
23 21 20 21 21 21 21 20 19 19 19 18 17 16 16 16 15 14 14 14 13 14 14 15 15 14 14 14 14 13 13 13 13 14 13 12 12 12 11 11 11 11 10 10
24 23 23 23 22 22 22 21 20 20 20 19 18 18 18 18 17 16 15 15 15 15 15 16 16 15 15 14 14 14 14 14 14 14 13 13 13 13 12 11 11 10 10 9
24 24 24 24 23 23 23 21 20 20 19 19 18 18 19 19 19 18 17 17 16 16 17 16 16 16 15 15 15 15 15 15 15 14 14 13 13 13 12 11 10 10 10 9
23 23 24 25 24 24 23 23 22 21 20 19 19 19 18 18 19 19 19 18 18 17 17 18 17 16 15 16 16 16 16 15 15 14 14 13 12 13 12 11 10 10 10 10
Wind_Direction
265 280 285 296 292 289 284 281 279 277 279 281 281 282 284 291 292 294 297 301 304 303 299 297 290 288 287 288 283 278 279 280 281 277 278 274 277 279 280 279 278 279 280 280
302 294 290 293 291 288 285 280 282 285 282 280 282 283 282 290 294 296 297 301 304 302 302 302 292 289 287 286 283 275 276 279 279 279 281 277 274 278 280 281 283 283 279 282
306 303 299 299 292 284 283 281 284 284 284 281 281 281 281 285 291 296 298 302 305 304 301 304 294 286 285 281 282 280 280 281 281 283 281 278 280 281 284 283 280 287 290 288
307 303 296 298 297 289 287 282 280 279 280 276 276 276 279 283 289 295 302 306 305 304 302 303 301 295 289 284 282 279 279 280 281 280 283 283 283 283 283 281 278 287 295 289
312 306 297 295 300 298 292 288 283 279 280 279 278 279 284 285 288 295 303 307 305 305 305 303 303 299 293 287 281 277 276 279 280 279 284 287 285 282 282 281 281 287 292 293
309 305 302 301 301 305 299 292 289 287 281 277 280 285 286 287 293 298 302 303 305 306 304 306 306 301 295 287 281 279 278 279 279 278 279 284 284 284 285 279 283 291 294 298
306 304 305 304 304 306 300 293 293 294 285 283 286 287 290 293 297 300 301 302 301 303 305 306 306 302 294 288 282 281 279 279 281 276 272 279 278 281 286 287 291 293 293 295
310 308 306 303 305 305 308 307 302 304 295 285 282 287 294 298 299 299 297 301 301 301 303 307 306 305 298 293 283 279 280 281 283 282 276 275 278 280 281 287 292 294 295 296
308 306 304 301 304 306 305 308 311 305 302 289 285 292 296 296 298 299 297 296 298 298 300 305 304 304 303 299 289 275 281 287 288 286 281 275 273 276 282 289 297 300 300 298
307 304 301 301 301 299 299 301 304 304 303 297 297 298 300 298 297 296 296 295 299 302 300 304 304 303 303 303 300 290 287 290 293 293 278 269 273 276 281 291 299 304 301 298
299 302 301 295 295 295 296 296 300 302 300 296 299 299 301 299 295 297 299 302 303 301 300 301 305 305 303 306 302 291 289 298 299 292 286 289 288 283 289 295 298 303 302 300
295 297 295 297 294 293 294 296 297 296 294 297 298 302 300 301 298 297 297 300 301 302 300 302 304 304 303 302 304 299 297 306 305 302 300 296 301 294 297 298 300 302 302 301
292 290 290 292 288 288 293 297 297 295 291 291 292 295 296 299 296 293 295 298 298 299 301 302 303 305 305 301 304 305 302 304 306 306 305 306 306 298 298 299 301 302 303 301
288 285 285 287 288 289 291 291 289 289 287 288 289 289 287 290 291 290 293 296 297 294 298 298 302 312 312 303 301 302 298 299 305 304 304 307 309 305 302 300 301 301 302 302
283 284 283 284 284 284 285 285 284 285 286 289 288 284 280 282 285 284 287 290 288 284 284 290 297 304 307 305 302 304 300 305 306 303 302 304 309 311 307 304 301 300 300 304
283 283 281 281 283 282 286 286 282 281 281 283 286 283 279 275 280 283 281 277 278 276 277 283 290 296 299 299 298 301 304 308 305 299 296 301 310 311 307 303 301 301 303 303
279 282 281 279 281 281 283 287 283 278 275 279 282 284 274 273 276 277 273 268 270 269 274 282 285 288 289 291 290 293 296 298 297 294 296 302 307 305 305 305 305 303 304 304
278 278 278 280 282 281 285 284 284 282 280 280 281 281 271 270 274 276 274 268 267 265 269 276 279 279 282 288 290 292 295 295 295 294 295 299 302 303 305 306 306 303 303 303
274 275 276 278 280 280 279 281 284 282 277 276 277 278 279 272 271 274 268 262 262 265 270 274 275 278 281 287 290 292 295 299 299 297 295 296 297 301 303 302 303 304 302 300
271 271 272 275 277 277 276 278 279 280 276 276 277 276 276 274 271 269 263 257 259 265 266 269 268 273 279 286 290 291 294 297 300 300 298 295 296 300 302 302 302 304 303 300
270 270 270 271 273 276 276 276 277 278 281 280 282 281 277 274 274 272 264 258 258 261 267 269 266 270 278 282 285 290 294 296 299 300 301 300 296 297 300 301 301 301 301 299
271 271 270 270 272 273 275 274 276 277 279 278 277 278 277 275 273 269 266 261 260 262 266 267 270 272 274 279 284 289 292 296 297 296 297 298 296 296 297 298 300 299 298 295
271 271 272 271 272 273 273 274 275 276 277 276 275 273 270 271 271 266 264 262 263 265 267 266 270 275 277 280 282 284 289 294 296 293 291 293 294 297 297 297 299 299 298 293
268 268 268 268 270 270 271 273 274 275 275 275 274 272 270 268 266 263 261 260 262 266 266 267 268 270 273 275 277 279 284 289 294 296 292 292 293 295 296 295 297 298 299 297
266 267 266 267 268 268 268 272 271 271 272 273 272 272 269 266 262 262 263 263 263 264 265 266 267 267 270 274 277 279 281 285 290 294 295 294 294 294 296 293 294 295 296 297
265 265 266 266 266 267 267 268 267 269 270 270 270 268 269 266 261 260 261 260 259 260 261 263 266 265 269 273 275 277 280 281 284 288 291 291 290 291 293 290 289 289 292 294
Height
5860 5860 5859 5859 5858 5858 5857 5856 5856 5855 5855 5854 5853 5852 5851 5850 5849 5848 5847 5845 5844 5842 5841 5839 5837 5835 5834 5834 5833 5833 5833 5833 5832 5832 5832 5832 5832 5831 5831 5830 5829 5828 5827 5827
5859 5858 5857 5856 5855 5854 5853 5853 5853 5852 5851 5850 5849 5848 5847 5846 5845 5844 5843 5841 5840 5839 5837 5835 5833 5832 5831 5831 5830 5830 5829 5829 5829 5829 5828 5828 5828 5828 5828 5827 5826 5825 5824 5824
5857 5856 5854 5853 5853 5852 5851 5850 5850 5849 5848 5846 5845 5844 5844 5842 5841 5839 5838 5837 5836 5835 5834 5832 5831 5829 5828 5827 5827 5826 5826 5825 5825 5825 5825 5825 5825 5824 5824 5824 5823 5822 5821 5821
5854 5853 5852 5851 5850 5849 5848 5847 5846 5845 5844 5843 5842 5840 5840 5838 5837 5836 5834 5833 5832 5831 5830 5829 5827 5826 5825 5824 5823 5822 5822 5821 5822 5821 5821 5822 5822 5822 5821 5821 5820 5819 5818 5818
5853 5851 5850 5849 5848 5846 5845 5844 5843 5842 5840 5839 5838 5836 5837 5835 5833 5832 5831 5829 5828 5827 5826 5825 5824 5822 5821 5820 5819 5819 5818 5818 5818 5818 5818 5818 5818 5819 5818 5818 5817 5816 5815 5815
5851 5849 5847 5846 5845 5843 5841 5841 5840 5838 5836 5835 5834 5833 5832 5831 5830 5829 5827 5826 5825 5824 5823 5821 5820 5818 5817 5817 5816 5815 5815 5815 5815 5815 5815 5815 5815 5815 5815 5815 5814 5813 5812 5812
5848 5847 5845 5843 5842 5840 5839 5838 5836 5834 5832 5831 5831 5828 5828 5827 5827 5825 5824 5823 5821 5821 5820 5818 5817 5816 5815 5814 5812 5812 5812 5812 5812 5812 5812 5812 5812 5812 5812 5812 5811 5810 5810 5809
5845 5844 5842 5840 5839 5837 5836 5834 5833 5831 5828 5828 5827 5825 5826 5824 5823 5822 5821 5819 5818 5818 5817 5815 5814 5813 5812 5810 5809 5809 5809 5809 5809 5809 5809 5809 5809 5809 5809 5808 5808 5807 5806 5805
5842 5841 5839 5837 5836 5834 5832 5830 5829 5828 5825 5824 5823 5822 5821 5820 5819 5818 5817 5817 5816 5814 5813 5812 5811 5810 5809 5808 5807 5807 5807 5807 5807 5807 5807 5806 5806 5806 5806 5805 5804 5803 5802 5801
5839 5837 5836 5834 5833 5831 5829 5827 5826 5824 5822 5820 5820 5819 5819 5817 5817 5816 5815 5814 5813 5812 5810 5809 5809 5808 5807 5806 5805 5805 5805 5805 5804 5804 5804 5804 5803 5803 5803 5802 5801 5800 5799 5797
5835 5834 5833 5831 5829 5827 5826 5825 5822 5820 5819 5818 5817 5819 5816 5815 5814 5813 5813 5811 5810 5809 5808 5807 5806 5805 5805 5804 5804 5803 5803 5802 5802 5802 5802 5801 5801 5800 5800 5799 5798 5796 5795 5794
5832 5830 5829 5828 5826 5824 5822 5820 5819 5818 5816 5815 5814 5816 5813 5812 5811 5810 5810 5809 5808 5807 5806 5805 5804 5803 5803 5802 5802 5801 5801 5800 5800 5799 5799 5798 5797 5797 5796 5796 5794 5793 5792 5790
5828 5827 5826 5824 5824 5822 5819 5817 5816 5814 5813 5812 5811 5813 5810 5809 5808 5807 5807 5806 5805 5804 5804 5803 5802 5802 5801 5800 5800 5799 5799 5798 5798 5797 5797 5797 5795 5795 5794 5792 5791 5790 5788 5787
5824 5823 5822 5821 5819 5817 5816 5814 5812 5811 5809 5808 5808 5808 5807 5805 5805 5804 5804 5803 5803 5802 5801 5801 5801 5800 5799 5798 5798 5797 5797 5796 5796 5796 5795 5794 5793 5792 5791 5789 5788 5786 5785 5783
5820 5819 5817 5816 5815 5813 5811 5810 5809 5807 5806 5805 5805 5804 5804 5802 5802 5801 5800 5800 5800 5799 5799 5799 5799 5799 5798 5797 5796 5795 5795 5794 5794 5793 5793 5792 5790 5789 5787 5786 5784 5783 5781 5780
5816 5815 5813 5812 5811 5809 5808 5806 5805 5804 5802 5802 5801 5801 5800 5799 5799 5798 5797 5797 5797 5797 5797 5797 5797 5797 5796 5795 5794 5793 5793 5792 5792 5791 5790 5789 5787 5786 5784 5783 5781 5780 5778 5776
5811 5810 5809 5808 5807 5805 5804 5803 5801 5800 5799 5798 5797 5798 5796 5796 5796 5795 5795 5795 5795 5795 5795 5795 5795 5794 5794 5793 5793 5792 5791 5790 5789 5788 5787 5786 5784 5783 5781 5779 5778 5776 5775 5773
5806 5805 5804 5803 5803 5801 5802 5799 5798 5797 5796 5795 5794 5793 5793 5793 5792 5792 5791 5792 5792 5792 5793 5793 5792 5792 5792 5791 5790 5789 5788 5787 5786 5785 5784 5783 5781 5779 5778 5776 5774 5773 5771 5770
5801 5800 5799 5798 5797 5796 5796 5795 5794 5793 5791 5791 5790 5790 5789 5788 5788 5788 5788 5789 5790 5790 5790 5789 5789 5789 5788 5788 5787 5786 5785 5784 5783 5782 5780 5779 5777 5776 5774 5773 5771 5769 5767 5766
5795 5795 5794 5793 5791 5791 5792 5791 5789 5789 5787 5787 5786 5785 5785 5785 5784 5785 5786 5786 5786 5786 5786 5786 5786 5786 5785 5784 5784 5783 5782 5781 5780 5778 5777 5775 5773 5772 5770 5769 5767 5765 5763 5762
5789 5788 5788 5787 5786 5785 5786 5785 5785 5785 5785 5784 5782 5781 5780 5780 5781 5781 5781 5782 5783 5783 5783 5783 5782 5782 5782 5781 5780 5780 5779 5778 5776 5775 5773 5771 5770 5768 5767 5765 5763 5762 5761 5759
5782 5782 5781 5781 5780 5782 5781 5780 5780 5780 5779 5778 5778 5777 5777 5776 5776 5777 5777 5778 5778 5779 5779 5779 5778 5778 5778 5777 5777 5776 5775 5774 5772 5771 5770 5768 5766 5765 5763 5762 5760 5759 5757 5756
5775 5776 5775 5775 5776 5775 5774 5774 5774 5773 5773 5773 5773 5773 5773 5772 5772 5772 5773 5773 5774 5775 5775 5775 5775 5774 5774 5774 5773 5772 5771 5770 5769 5767 5766 5764 5763 5762 5760 5759 5757 5756 5754 5753
5768 5768 5768 5768 5768 5768 5768 5767 5767 5767 5768 5768 5768 5768 5768 5768 5768 5768 5769 5769 5770 5770 5770 5770 5770 5770 5770 5769 5768 5768 5767 5766 5765 5763 5761 5760 5759 5758 5757 5755 5754 5752 5751 5750
5761 5761 5761 5761 5762 5761 5761 5761 5761 5761 5761 5761 5761 5761 5761 5762 5762 5763 5764 5764 5765 5765 5765 5765 5765 5765 5765 5765 5764 5763 5763 5762 5760 5759 5758 5757 5756 5754 5753 5752 5751 5750 5748 5747
5753 5753 5753 5754 5755 5754 5755 5755 5754 5755 5755 5756 5756 5756 5756 5756 5756 5757 5758 5758 5759 5759 5759 5759 5760 5760 5760 5760 5759 5759 5758 5757 5756 5755 5754 5753 5752 5751 5750 5748 5748 5747 5746 5745